TimeEST,TemperatureF,Dew PointF,Humidity,Sea Level PressureIn,VisibilityMPH,Wind Direction,Wind SpeedMPH,Gust SpeedMPH,PrecipitationIn,Events,Conditions,WindDirDegrees,DateUTC
12:51 AM,34.0,28.0,79,30.92,10.0,NNE,4.6,-,N/A,,Overcast,30,2013-02-27 05:51:00
1:01 AM,33.8,28.4,81,30.15,10.0,Calm,Calm,-,N/A,,Overcast,0,2013-02-27 06:01:00
1:51 AM,34.9,28.0,76,30.88,10.0,NE,4.6,-,N/A,,Overcast,40,2013-02-27 06:51:00
2:51 AM,36.0,29.1,76,30.87,6.0,NNE,4.6,-,N/A,,Haze,30,2013-02-27 07:51:00
3:51 AM,32.9,31.1,93,30.86,3.0,North,3.5,-,0.01,,Overcast,360,2013-02-27 08:51:00
4:05 AM,33.8,30.2,87,30.07,2.5,NNE,6.9,-,N/A,,Overcast,20,2013-02-27 09:05:00
4:43 AM,33.8,30.2,87,30.08,1.8,NNE,4.6,-,N/A,,Mostly Cloudy,20,2013-02-27 09:43:00
4:51 AM,32.9,31.1,93,30.83,1.2,NNE,3.5,-,N/A,,Mostly Cloudy,30,2013-02-27 09:51:00
5:06 AM,33.8,30.2,87,30.06,1.5,NNE,3.5,-,N/A,,Clear,30,2013-02-27 10:06:00
5:24 AM,33.8,30.2,87,30.06,2.0,Calm,Calm,-,N/A,,Partly Cloudy,0,2013-02-27 10:24:00
5:51 AM,32.9,32.0,96,30.80,2.5,Calm,Calm,-,N/A,,Partly Cloudy,0,2013-02-27 10:51:00
6:15 AM,33.8,32.0,93,30.02,3.0,NE,5.8,-,N/A,,Mostly Cloudy,40,2013-02-27 11:15:00
7:51 AM,37.9,36.0,93,30.73,4.0,East,11.5,-,0.12,,Overcast,80,2013-02-27 12:51:00
8:07 AM,37.4,35.6,93,29.96,2.5,East,12.7,-,0.07,,Overcast,80,2013-02-27 13:07:00
8:37 AM,39.2,35.6,87,29.94,4.0,East,13.8,20.7,0.16,,Overcast,80,2013-02-27 13:37:00
9:02 AM,39.2,37.4,93,29.93,2.5,East,15.0,24.2,N/A,,Overcast,80,2013-02-27 14:02:00
9:41 AM,39.2,35.6,87,29.91,4.0,East,13.8,20.7,0.07,,Overcast,90,2013-02-27 14:41:00
9:51 AM,38.8,36.0,89,30.67,3.0,East,15.0,-,0.09,,Overcast,80,2013-02-27 14:51:00
9:58 AM,39.2,35.6,87,29.90,3.0,East,15.0,19.6,0.01,Rain,Light Rain,90,2013-02-27 14:58:00
10:14 AM,39.2,35.6,87,29.89,2.5,East,16.1,23.0,0.03,Rain,Light Rain,80,2013-02-27 15:14:00
10:51 AM,39.9,36.9,89,30.63,2.5,East,13.8,21.9,0.07,Rain,Light Rain,90,2013-02-27 15:51:00
11:51 AM,39.9,36.9,89,30.59,2.5,East,15.0,21.9,0.04,Rain,Light Rain,90,2013-02-27 16:51:00
12:51 PM,38.8,36.0,89,30.56,2.5,East,15.0,23.0,0.06,Rain,Light Rain,90,2013-02-27 17:51:00
12:58 PM,39.2,37.4,93,29.80,1.2,East,15.0,21.9,0.01,Rain,Light Rain,80,2013-02-27 17:58:00
1:51 PM,37.9,34.9,89,30.55,1.5,East,12.7,20.7,0.09,Rain,Light Rain,90,2013-02-27 18:51:00
2:51 PM,36.9,34.0,89,30.53,1.5,ENE,12.7,21.9,0.09,Rain,Light Rain,70,2013-02-27 19:51:00
3:51 PM,34.9,32.9,92,30.52,1.5,ENE,11.5,-,0.10,Rain,Light Rain,70,2013-02-27 20:51:00
3:58 PM,35.6,33.8,93,29.76,1.5,ENE,9.2,17.3,0.00,Rain,Light Rain,60,2013-02-27 20:58:00
4:16 PM,33.8,32.0,93,29.75,2.0,ENE,6.9,-,0.03,Rain,Light Rain,60,2013-02-27 21:16:00
4:23 PM,33.8,32.0,93,29.75,1.2,NE,5.8,-,0.04,Rain,Light Rain,40,2013-02-27 21:23:00
4:44 PM,33.8,32.0,93,29.75,1.8,ENE,5.8,-,0.06,Rain,Light Rain,60,2013-02-27 21:44:00
4:51 PM,34.0,32.0,92,30.50,2.5,Variable,6.9,-,0.07,Rain,Light Rain,0,2013-02-27 21:51:00
5:51 PM,34.0,32.0,92,30.49,2.0,NE,9.2,-,0.04,Rain,Light Rain,50,2013-02-27 22:51:00
5:58 PM,33.8,32.0,93,29.73,1.5,NE,6.9,-,0.00,Rain,Light Rain,50,2013-02-27 22:58:00
6:16 PM,33.8,32.0,93,29.72,1.8,NE,10.4,16.1,0.02,Rain,Light Rain,40,2013-02-27 23:16:00
6:51 PM,34.0,32.0,92,30.48,2.0,NE,5.8,-,0.04,,Overcast,40,2013-02-27 23:51:00
7:24 PM,33.8,32.0,93,29.69,4.0,NE,8.1,-,0.02,,Overcast,40,2013-02-28 00:24:00
7:41 PM,33.8,32.0,93,29.67,2.5,NE,8.1,17.3,0.03,,Overcast,40,2013-02-28 00:41:00
7:51 PM,34.0,32.0,92,30.43,2.5,NNE,8.1,-,0.04,,Overcast,30,2013-02-28 00:51:00
8:42 PM,33.8,32.0,93,29.67,1.8,North,5.8,-,0.02,,Overcast,10,2013-02-28 01:42:00
8:51 PM,34.0,32.0,92,30.41,1.5,NNE,6.9,-,0.03,,Overcast,20,2013-02-28 01:51:00
9:34 PM,33.8,32.0,93,29.65,2.0,North,10.4,-,0.03,,Overcast,10,2013-02-28 02:34:00
9:51 PM,34.0,32.0,92,30.38,2.5,North,9.2,-,0.03,,Overcast,360,2013-02-28 02:51:00
10:01 PM,33.8,32.0,93,29.62,3.0,North,9.2,-,N/A,,Overcast,360,2013-02-28 03:01:00
10:51 PM,34.0,32.0,92,30.35,4.0,North,9.2,-,N/A,,Overcast,360,2013-02-28 03:51:00
11:51 PM,34.0,32.0,92,30.35,4.0,North,10.4,-,N/A,,Overcast,350,2013-02-28 04:51:00